Location: Remedello Sotto
(45.2500°N, 10.3667°E)
Time: 11:44:49
(UTC+00:00)

USA 281 - Pass Details

Date: 03 February 2023
Orbit: 1079 x 1080 km, 106.0° (Epoch: 19 March)

Event Time Altitude Azimuth Distance (km) Brightness Sun altitude
Rises 17:06:11 0° 19° (NNE) 3,890 5.8 -7.1°
Reaches altitude 10° 17:08:51 10° 13° (NNE) 2,930 5.2 -7.6°
Maximum altitude 17:14:53 40° 306° (NW) 1,536 4.4 -8.6°
Drops below altitude 10° 17:20:54 10° 240° (WSW) 2,916 6.9 -9.6°
Sets 17:23:33 0° 233° (SW) 3,869 7.5 -10.1°
